SL-16 R/B (23088 NORAD) Tracking and Keplerian Element Data

This shows tracking and keplerian element data for the satellite.

Feedback or suggestion? Click here.




ElementValue
Catalog23088
NameSL-16 R/B
Epoch Orbit53510
Epoch Day13.14797384
Epoch Year2024
RAAN282.4592
Inclination70.9992
Eccentricity0.0001881
Argument of Perigee12.8596
Mean Anonmoly347.2574
Mean Motion14.14806751
Decay Rate2.11E-06
L11 23088U 94023B 24013.14797384 .00000211 00000+0 13416-3 0 9993
L22 23088 70.9992 282.4592 0001881 12.8596 347.2574 14.14806751535103



Live tracking and technical data element details for SL-16 R/B (NORAD 23088). SL-16 R/B can be tracked NOW for your location showing map with azimuth and elevation plus other details from your city location.







IsCatalogInMostPopularTable: catalog: 23088, numindb: 530
Update: records affected: 1



GetName: 23088 SL-16 R/B

Hit Count: updated at: Fri, 19 Apr 2024 12:20:25 GMT